CAPE
0 0 0 0 0 0 0 0 0 0 0 0 0 0 0 0 0 0 0 0 0 0 0 0 0 0 1 2 3 2 0 0 0 3 0 0 0 0 0 0 0 0 3
0 0 0 0 0 0 0 0 0 0 0 0 0 0 0 0 0 0 0 0 0 0 0 0 0 0 2 0 2 4 10 10 6 14 6 0 0 0 0 0 0 0 0
0 0 0 0 0 0 0 0 0 0 0 0 0 0 0 0 0 0 0 0 0 0 0 0 1 0 1 15 15 10 20 16 7 1 16 20 14 2 0 0 0 0 0
0 0 0 0 0 0 0 0 0 0 0 0 0 0 0 0 0 0 0 0 0 0 0 0 1 0 1 9 10 12 12 15 14 12 7 14 15 22 2 0 0 2 44
0 0 0 0 0 0 0 0 0 0 0 0 0 0 0 0 0 0 0 0 0 0 0 0 3 6 5 9 15 11 6 9 14 16 17 11 19 12 29 7 0 0 0
0 0 0 0 0 0 0 0 0 0 0 0 0 0 0 0 0 0 0 0 0 3 2 3 1 0 6 8 8 19 14 20 21 15 20 20 23 23 31 30 2 3 10
0 0 0 0 0 0 0 0 0 0 0 0 0 0 0 0 0 0 0 1 3 4 5 3 0 5 9 4 7 13 10 10 10 17 17 22 24 29 13 15 10 12 8
0 0 0 0 0 0 0 0 0 0 0 0 0 0 0 0 0 0 0 0 3 0 0 2 1 3 2 3 1 8 5 8 6 18 17 15 14 17 20 21 27 16 7
0 0 0 0 0 0 0 0 0 0 0 0 0 0 0 0 0 0 0 0 0 0 0 0 0 0 1 1 1 4 3 4 5 6 8 11 20 14 8 20 28 30 12
0 0 0 0 0 0 0 0 0 0 0 0 0 0 0 0 0 0 0 0 0 0 0 0 0 0 1 3 2 2 1 1 1 4 9 8 9 19 12 8 4 39 38
0 0 0 0 0 0 0 0 0 0 0 0 0 0 0 0 0 0 0 0 0 0 0 0 0 0 0 0 1 1 2 2 0 1 6 7 8 6 9 10 4 4 3
0 0 0 0 0 0 0 0 0 0 0 0 0 0 0 0 0 0 0 0 0 0 0 0 0 0 0 0 0 0 1 2 2 2 2 5 12 4 4 6 10 3 2
0 0 0 0 0 0 0 0 0 0 0 0 0 0 0 0 0 0 0 0 0 0 0 0 0 0 0 0 0 0 0 2 1 1 1 5 4 2 3 3 3 5 2
0 0 0 0 0 0 0 0 0 0 0 0 0 0 0 0 0 0 0 0 0 0 0 0 0 0 0 0 0 0 0 0 0 1 1 2 4 2 1 4 2 4 3
0 0 0 0 0 0 0 0 0 0 0 0 0 0 0 0 0 0 0 0 0 0 0 0 0 0 0 3 0 0 0 0 0 0 5 4 10 16 6 2 1 1 2
0 0 0 0 0 0 0 0 0 0 0 0 0 0 0 0 0 0 0 0 0 0 0 0 0 0 4 3 3 0 0 0 1 1 0 1 3 2 11 10 7 0 1
0 0 0 0 0 0 0 0 0 0 0 0 0 0 0 0 0 0 0 0 0 0 0 0 0 0 0 3 3 0 0 0 0 0 0 1 0 0 0 3 4 7 7
0 0 0 0 0 0 0 0 0 0 0 0 0 0 0 0 0 0 0 0 0 0 0 0 0 0 0 1 0 0 0 0 0 0 0 0 0 0 0 0 0 0 0
0 0 0 0 0 0 0 0 0 0 0 0 0 0 0 0 0 0 0 0 0 0 0 0 0 0 0 3 0 0 0 0 0 0 0 0 0 1 0 0 0 0 0
0 0 0 0 0 0 0 0 0 0 0 0 0 0 0 0 0 0 0 0 0 0 0 0 0 0 0 3 3 0 0 0 0 0 0 5 0 3 0 0 0 0 0
0 0 0 0 0 0 0 0 0 0 0 0 0 0 0 0 0 0 0 0 0 0 0 0 0 0 0 0 4 2 0 0 0 0 0 0 4 5 3 0 0 0 0
0 0 0 0 0 0 0 0 0 0 0 0 0 0 0 0 0 0 0 1 0 0 0 0 0 0 0 0 4 5 2 0 0 0 0 0 5 4 4 0 1 0 0
0 0 0 0 0 0 0 0 0 0 0 0 0 0 0 0 0 0 0 0 0 0 0 0 0 0 0 0 0 0 0 0 0 0 0 2 2 1 0 5 3 0 0
0 0 0 0 0 0 0 0 0 0 0 0 0 0 0 0 0 0 0 0 0 0 0 0 0 0 0 0 0 0 0 0 0 0 0 0 0 0 0 0 0 0 0
0 0 0 0 0 0 0 0 0 0 0 0 0 0 0 0 0 0 0 0 0 0 0 0 0 0 0 0 0 0 0 0 0 0 0 0 0 0 0 0 0 0 0
0 0 0 0 0 0 0 0 0 0 0 0 1 0 0 0 0 0 0 0 0 0 0 0 0 0 0 1 1 1 2 0 0 0 0 0 0 0 0 0 0 0 0
CIN
-0 -0 -0 -0 -0 -0 -0 -0 -0 -0 -0 -0 -0 -0 -0 -0 -0 -0 -0 -0 -0 -0 -0 -0 -0 -0 -1 -0 -0 -1 -0 -1 -1 -0 -0 -0 -0 -0 -0 -0 -0 -0 -0
-0 -0 -0 -0 -0 -0 -0 -0 -0 -0 -0 -0 -0 -0 -0 -0 -0 -0 -0 -0 -0 -0 -0 -0 -0 -0 -0 -0 -1 -0 -0 -0 -0 -0 -0 -0 -0 -0 -0 -0 -0 -0 -0
-0 -0 -0 -0 -0 -0 -0 -0 -0 -0 -0 -0 -0 -0 -0 -0 -0 -0 -0 -0 -0 -0 -0 -0 -0 -0 -0 -0 -0 -0 -0 -0 -0 -0 -0 -0 -1 -0 -0 -0 -0 -0 -0
-0 -0 -0 -0 -0 -0 -0 -0 -0 -0 -0 -0 -0 -0 -0 -0 -0 -0 -0 -0 -0 -0 -0 -0 -0 -0 -0 -0 -0 -0 -0 -0 -0 -0 -0 -0 -0 -0 -0 -0 -0 -13 -15
-0 -0 -0 -0 -0 -0 -0 -0 -0 -0 -0 -0 -0 -0 -0 -0 -0 -0 -0 -0 -0 -0 -0 -0 -0 -0 -0 -0 -0 -0 -0 -0 -0 -0 -0 -0 -0 -0 -0 -0 -0 -0 -0
-0 -0 -0 -0 -0 -0 -0 -0 -0 -0 -0 -0 -0 -0 -0 -0 -0 -0 -0 -0 -0 -0 -0 -0 -0 -0 -0 -0 -0 -0 -0 -0 -0 -0 -0 -0 -0 -0 -0 -0 -1 -0 -2
-0 -0 -0 -0 -0 -0 -0 -0 -0 -0 -0 -0 -0 -0 -0 -0 -0 -0 -0 -0 -0 -0 -0 -0 -0 -0 -0 -0 -0 -0 -0 -0 -0 -0 -0 -0 -0 -0 -0 -0 -0 -0 -0
-0 -0 -0 -0 -0 -0 -0 -0 -0 -0 -0 -0 -0 -0 -0 -0 -0 -0 -0 -0 -0 -0 -0 -0 -0 -0 -0 -0 -0 -0 -0 -0 -0 -0 -0 -0 -0 -0 -0 -0 -0 -0 -0
-0 -0 -0 -0 -0 -0 -0 -0 -0 -0 -0 -0 -0 -0 -0 -0 -0 -0 -0 -0 -0 -0 -0 -0 -0 -0 -0 -0 -0 -0 -0 -0 -0 -0 -0 -0 -0 -0 -0 -0 -0 -0 -0
-0 -0 -0 -0 -0 -0 -0 -0 -0 -0 -0 -0 -0 -0 -0 -0 -0 -0 -0 -0 -0 -0 -0 -0 -0 -0 -0 -0 -0 -0 -0 -0 -0 -0 -0 -0 -0 -0 -0 -0 -2 -0 -0
-0 -0 -0 -0 -0 -0 -0 -0 -0 -0 -0 -0 -0 -0 -0 -0 -0 -0 -0 -0 -0 -0 -0 -0 -0 -0 -0 -0 -0 -0 -0 -0 -0 -0 -0 -0 -0 -0 -0 -0 -0 -0 -0
-0 -0 -0 -0 -0 -0 -0 -0 -0 -0 -0 -0 -0 -0 -0 -0 -0 -0 -0 -0 -0 -0 -0 -0 -0 -0 -0 -0 -0 -0 -0 -0 -0 -0 -0 -0 -0 -0 -0 -0 -0 -0 -0
-0 -0 -0 -0 -0 -0 -0 -0 -0 -0 -0 -0 -0 -0 -0 -0 -0 -0 -0 -0 -0 -0 -0 -0 -0 -0 -0 -0 -0 -0 -0 -0 -0 -0 -0 -0 -0 -0 -0 -0 -0 -0 -0
-0 -0 -0 -0 -0 -0 -0 -0 -0 -0 -0 -0 -0 -0 -0 -0 -0 -0 -0 -0 -0 -0 -0 -0 -1 -0 -0 -0 -0 -0 -0 -0 -0 -0 -0 -0 -0 -0 -0 -0 -0 -0 -0
-0 -0 -0 -0 -0 -0 -0 -0 -0 -0 -0 -0 -0 -0 -0 -0 -0 -0 -0 -0 -0 -0 -0 -0 -0 -0 -0 -0 -0 -0 -0 -0 -0 -0 -0 -0 -0 -0 -0 -0 -0 -0 -0
-0 -0 -0 -0 -0 -0 -0 -0 -0 -0 -0 -0 -0 -0 -0 -0 -0 -0 -0 -0 -0 -0 -0 -0 -0 -0 -0 -0 -0 -0 -0 -0 -0 -0 -0 -0 -0 -0 -0 -0 -0 -0 -0
-0 -0 -0 -0 -0 -0 -0 -0 -0 -0 -0 -0 -0 -0 -0 -0 -0 -0 -0 -0 -0 -0 -0 -0 -0 -0 -0 -0 -0 -0 -0 -0 -0 -0 -0 -0 -0 -0 -0 -0 -0 -0 -0
-0 -0 -0 -0 -0 -0 -0 -0 -0 -0 -0 -0 -0 -0 -0 -0 -0 -0 -0 -0 -0 -0 -0 -0 -0 -0 -0 -0 -0 -0 -0 -0 -0 -0 -0 -0 -0 -0 -0 -0 -0 -0 -0
-0 -0 -0 -0 -0 -0 -0 -0 -0 -0 -0 -0 -0 -0 -0 -0 -0 -0 -0 -0 -0 -0 -0 -0 -0 -0 -0 -0 -0 -0 -0 -0 -0 -0 -0 -0 -0 -0 -0 -0 -0 -0 -0
-0 -0 -0 -0 -0 -0 -0 -0 -0 -0 -0 -0 -0 -0 -0 -0 -0 -0 -0 -0 -0 -0 -0 -0 -0 -0 -0 -0 -0 -0 -0 -0 -0 -0 -0 -0 -0 -0 -0 -0 -0 -0 -0
-0 -0 -0 -0 -0 -0 -0 -0 -0 -0 -0 -0 -0 -0 -0 -0 -0 -0 -0 -0 -0 -0 -0 -0 -0 -0 -0 -0 -0 -0 -0 -0 -0 -0 -0 -0 -0 -0 -0 -0 -0 -0 -0
-0 -0 -0 -0 -0 -0 -0 -0 -0 -0 -0 -0 -0 -0 -0 -0 -0 -0 -0 -0 -0 -0 -0 -0 -0 -0 -0 -0 -0 -0 -0 -0 -0 -0 -0 -0 -0 -0 -0 -0 -0 -0 -0
-0 -0 -0 -0 -0 -0 -0 -0 -0 -0 -0 -0 -0 -0 -0 -0 -0 -0 -0 -0 -0 -0 -0 -0 -0 -0 -0 -0 -0 -0 -0 -0 -0 -0 -0 -0 -0 -0 -0 -0 -0 -0 -0
-0 -0 -0 -0 -0 -0 -0 -0 -0 -0 -0 -0 -0 -0 -0 -0 -0 -0 -0 -0 -0 -0 -0 -0 -0 -0 -0 -0 -0 -0 -0 -0 -0 -0 -0 -0 -0 -0 -0 -0 -0 -0 -0
-0 -0 -0 -0 -0 -0 -0 -0 -0 -0 -0 -0 -0 -0 -0 -0 -0 -0 -0 -0 -0 -0 -0 -0 -0 -0 -0 -0 -0 -0 -0 -0 -0 -0 -0 -0 -0 -0 -0 -0 -0 -0 -0
-0 -0 -0 -0 -0 -0 -0 -0 -0 -0 -0 -0 -0 -0 -0 -0 -0 -0 -0 -0 -0 -0 -0 -0 -0 -0 -0 -0 -0 -0 -0 -0 -0 -0 -0 -0 -0 -0 -0 -0 -0 -0 -0
Wind_Speed
7 6 7 7 8 7 8 6 6 4 4 3 2 2 3 3 4 5 6 7 7 9 8 6 8 9 9 10 10 10 12 9 9 11 8 8 10 13 12 10 10 10 10
10 10 8 6 5 7 7 7 6 6 5 3 2 2 1 3 3 3 5 8 9 9 10 10 9 11 9 10 10 10 9 8 8 8 10 7 5 2 8 9 10 11 7
15 13 11 8 7 7 7 7 6 7 5 6 3 3 3 2 3 5 6 7 10 9 10 11 9 10 9 8 10 10 11 8 9 10 6 6 4 10 3 3 5 5 3
13 12 11 8 8 7 7 7 7 7 6 5 5 5 3 2 2 3 4 5 7 9 9 12 9 10 8 9 9 9 9 9 9 7 8 8 9 5 7 4 4 4 2
18 17 14 11 7 8 8 7 8 7 6 6 5 4 4 2 1 2 5 6 7 8 11 11 10 10 7 9 10 10 10 8 8 8 7 8 8 8 6 9 7 7 5
14 11 9 9 8 7 8 7 8 7 7 5 5 6 5 4 4 4 4 5 5 5 9 11 9 10 10 10 10 10 10 8 9 9 9 8 6 5 4 6 6 5 3
15 14 14 12 10 9 8 8 8 8 6 5 5 5 5 6 5 4 4 7 5 6 8 11 11 10 10 11 11 9 10 10 10 10 6 7 7 7 7 6 7 4 3
15 15 14 12 11 10 9 8 8 9 6 5 5 4 5 3 3 4 3 3 5 5 7 7 9 10 10 10 10 8 9 10 9 12 10 7 6 7 7 7 6 4 2
15 15 13 11 10 9 9 9 9 7 6 5 4 4 4 5 3 4 2 2 4 5 6 8 9 10 10 11 10 8 10 10 10 10 11 8 6 6 6 6 6 4 2
13 12 12 12 8 8 7 8 7 8 6 5 4 4 4 4 3 3 4 5 5 5 6 9 9 10 10 11 11 9 10 11 9 9 12 10 8 6 5 6 5 5 3
15 13 12 10 10 8 8 7 7 8 6 5 4 5 3 4 4 3 4 4 3 5 7 8 9 9 10 10 10 10 12 12 12 13 12 13 12 7 6 5 5 5 3
10 10 11 11 10 9 7 7 7 7 5 5 5 4 4 3 4 5 4 4 5 5 5 7 8 9 9 9 10 10 11 12 13 14 14 15 10 12 10 7 8 7 7
10 10 10 11 10 9 7 6 5 5 5 5 5 5 4 4 5 4 3 5 5 5 5 6 6 8 9 9 9 9 10 11 12 13 13 15 15 14 11 10 9 8 8
13 11 10 10 9 8 7 6 5 5 5 5 5 5 3 4 4 2 2 5 5 5 6 6 4 6 7 10 9 10 10 10 11 12 13 14 15 16 13 12 12 10 9
12 14 13 11 10 9 8 8 6 4 4 5 5 3 3 4 4 1 5 5 5 5 6 7 7 7 8 8 9 10 10 10 10 12 12 14 21 28 25 11 13 12 10
13 14 12 13 13 13 11 11 9 7 6 5 5 3 5 4 3 3 5 6 5 5 5 7 7 6 7 17 19 14 10 11 12 11 12 11 17 18 26 29 32 24 13
15 16 17 15 13 13 13 11 10 9 7 6 4 3 4 4 3 5 5 5 4 4 5 6 6 6 4 17 17 18 7 8 9 10 10 12 11 15 13 21 23 27 29
10 11 11 12 12 11 11 11 10 9 8 8 7 5 4 5 4 6 4 3 3 4 3 5 5 4 7 15 16 16 6 6 7 7 10 9 11 15 13 13 14 15 15
8 8 10 11 11 13 13 12 11 9 9 9 8 8 7 6 6 5 3 0 4 4 3 3 6 5 4 15 15 9 6 6 9 8 10 8 11 21 21 12 12 13 12
6 11 11 11 12 12 13 13 11 10 9 10 9 8 8 7 7 7 5 2 2 2 3 5 5 10 6 11 14 10 5 7 6 8 9 23 17 23 22 11 11 13 9
7 10 11 12 12 13 14 12 11 11 8 8 9 8 7 7 7 7 7 6 4 4 3 5 5 6 7 6 11 13 4 4 5 6 6 8 21 22 23 20 11 11 5
7 7 10 9 10 12 12 11 12 8 9 8 7 6 5 4 4 5 6 9 6 5 3 4 3 4 5 10 7 12 12 10 6 5 5 8 18 21 21 15 22 19 7
7 4 10 9 3 10 11 12 7 10 9 9 7 5 5 4 4 5 5 7 7 5 3 3 2 2 3 3 11 12 13 14 6 5 12 17 17 18 12 20 18 10 7
7 6 10 10 8 5 8 6 11 10 10 9 7 5 6 5 4 3 3 6 5 4 4 3 2 1 2 3 3 4 5 8 7 6 7 7 8 7 6 7 9 7 6
7 8 9 10 10 8 7 9 10 11 10 9 8 8 6 6 5 3 3 4 1 5 6 3 3 2 1 2 7 7 4 3 5 5 5 5 5 6 6 6 7 6 6
9 8 7 9 10 9 9 10 11 12 11 10 8 7 6 5 5 5 4 8 10 12 13 11 5 3 5 10 10 11 11 11 9 6 4 3 4 4 5 5 5 6 7
Wind_Direction
166 145 134 123 117 109 107 100 89 48 52 49 37 26 59 35 34 25 13 9 3 359 357 353 347 339 330 320 315 316 317 318 312 311 296 298 265 251 244 240 248 238 232
157 156 146 147 137 139 129 122 103 75 50 50 45 61 66 77 65 7 10 10 6 2 1 352 346 336 326 321 319 315 311 310 319 312 300 292 319 288 241 227 235 236 219
166 164 163 155 144 146 143 128 114 90 73 62 46 28 25 24 357 10 8 2 7 360 356 351 342 335 327 320 321 316 317 319 310 299 296 314 313 340 318 283 229 244 213
172 163 165 158 158 159 134 122 110 105 85 76 73 77 84 57 348 342 344 356 356 355 352 347 343 330 322 323 317 320 312 309 304 300 280 282 288 309 324 333 343 30 15
171 172 168 160 161 148 140 128 111 100 90 73 82 88 83 70 354 351 5 358 344 353 6 345 335 331 323 316 322 321 313 300 290 285 287 278 284 262 268 302 314 338 19
165 154 144 145 148 141 133 130 119 106 90 88 81 87 88 75 40 6 12 2 338 349 0 350 342 340 334 341 330 328 337 319 315 300 278 268 270 291 258 251 295 330 338
154 153 160 163 153 152 146 129 127 112 108 105 83 74 74 66 55 24 9 1 346 354 1 353 352 349 346 339 336 350 343 342 330 329 300 273 263 268 278 286 298 298 332
157 164 167 163 161 152 140 128 126 123 128 106 92 76 72 69 52 26 348 333 340 348 347 346 350 352 350 349 349 355 349 345 341 337 342 327 298 256 268 262 267 275 271
159 166 167 164 154 148 142 143 127 129 126 123 123 98 79 70 58 31 3 352 7 358 349 344 4 359 355 355 357 360 357 352 349 342 352 346 342 329 319 281 231 257 269
161 164 164 160 155 136 133 119 134 135 137 142 123 92 76 66 63 44 27 26 10 342 358 353 11 12 4 358 3 357 359 358 356 353 358 0 353 348 335 320 329 233 229
176 166 164 152 138 129 127 137 140 133 137 121 108 104 90 81 81 60 38 15 350 2 9 360 11 18 9 3 6 3 1 2 358 2 4 10 5 0 351 349 352 27 14
165 154 145 141 143 138 146 154 143 131 130 135 133 118 100 84 69 52 30 20 15 7 8 2 19 23 18 6 12 11 2 3 1 0 8 14 14 16 10 11 24 25 24
147 147 148 159 153 154 153 144 127 134 141 139 136 110 95 87 71 45 10 31 8 9 3 17 18 26 26 10 12 16 9 7 5 2 8 19 23 26 20 23 30 29 35
171 166 165 166 157 153 146 134 139 155 139 135 121 106 97 92 74 40 31 42 19 11 3 24 32 33 33 27 9 18 17 12 14 11 17 24 30 34 30 32 31 34 43
175 184 177 166 157 148 149 158 153 143 126 123 113 140 130 106 86 61 60 55 37 21 7 38 29 52 44 41 27 16 18 23 20 25 27 30 39 46 51 44 37 39 48
192 181 169 167 169 165 165 166 156 151 145 139 155 154 116 100 107 75 61 48 40 29 15 34 36 28 49 54 48 35 24 25 30 26 27 36 39 36 46 49 56 55 46
177 175 182 179 170 167 162 163 155 152 154 154 159 141 127 124 108 88 69 46 30 36 27 29 28 41 17 57 54 45 16 19 18 26 24 34 38 38 45 47 45 51 54
166 172 171 167 161 152 152 141 148 156 160 161 163 154 145 139 124 103 87 35 30 39 17 25 18 13 64 60 54 42 16 17 13 23 27 29 34 45 43 45 45 37 37
164 169 157 149 146 151 148 145 152 156 161 169 170 167 162 152 143 141 150 68 68 42 22 4 27 27 359 65 55 36 21 19 34 18 58 38 47 47 46 43 47 46 34
140 142 138 137 141 148 148 148 156 163 175 175 173 169 167 166 163 157 161 157 96 63 38 37 18 28 6 67 61 52 35 37 34 35 39 52 57 55 53 46 45 49 14
133 130 144 156 152 148 149 152 159 178 173 164 164 168 169 167 164 151 157 155 141 106 72 51 14 17 8 15 63 70 44 45 43 38 33 52 57 56 54 54 53 56 14
138 147 141 145 149 151 150 157 178 165 157 154 155 154 153 160 155 159 158 165 156 145 104 82 47 15 13 20 56 77 80 74 68 51 30 44 54 61 61 54 52 48 27
144 137 145 138 122 155 161 162 169 148 151 153 159 155 142 124 134 140 150 159 158 147 139 105 50 353 8 1 55 81 77 69 65 68 73 66 60 56 36 57 47 31 29
157 138 137 151 159 155 156 144 148 148 150 152 149 140 128 121 105 99 124 141 138 128 128 133 131 328 344 21 28 55 61 67 63 54 47 43 55 44 41 38 33 24 30
152 160 162 164 166 149 133 142 149 148 152 151 154 152 140 131 120 103 136 132 71 156 147 163 154 119 345 236 139 115 86 77 90 75 49 39 27 36 31 32 31 26 30
157 158 158 155 154 152 147 155 161 162 160 162 161 154 139 140 134 130 117 129 135 137 140 150 162 267 212 126 102 90 89 95 96 69 57 27 16 34 31 27 19 24 26